Regional Weather Roundup
Issued by NWS

Home | Current Version | Previous Version | Graphics & Text | Print | Product List | Glossary On
Versions: 1 2 3 4 5 6 7 8 9 10 11 12 13 14 15 16 17 18 19 20 21 22 23 24 25 26 27 28 29 30 31 32 33 34 35 36 37 38 39 40 41 42 43 44 45 46 47 48 49 50
000
ASUS43 KFSD 220902
RWRSD

WEATHER ROUNDUP FOR SOUTH DAKOTA
NATIONAL WEATHER SERVICE SIOUX FALLS SD
300 AM CST MON DEC 22 2014

NOTE: "FAIR" INDICATES FEW OR NO CLOUDS BELOW 12,000 FEET WITH NO
SIGNIFICANT WEATHER AND/OR OBSTRUCTIONS TO VISIBILITY.


SDZ001>005-009-010-012>017-221000-
NORTHWEST AND NORTH CENTRAL SOUTH DAKOTA

CITY           SKY/WX    TMP DP  RH WIND       PRES   REMARKS
BUFFALO          N/A     37  32  82 W23       29.42R
FAITH            N/A     38  33  82 NW21      29.44R
MOBRIDGE       CLOUDY    29  28  96 CALM      29.41R FOG
$$

SDZ012>016-024>037-041>051-057-063-072>074-221000-
SOUTHWEST AND SOUTH CENTRAL SOUTH DAKOTA

CITY           SKY/WX    TMP DP  RH WIND       PRES   REMARKS
RAPID CTY ARPT CLOUDY    40  29  64 NW24G31   29.52R
PIERRE         MIX PCPN  31  29  92 VRB3      29.44R FOG
CUSTER         CLOUDY    31  24  75 W6        29.52R WCI  25
PHILIP         CLOUDY    39  37  92 NW16      29.49R
PINE RIDGE     LGT RAIN  36  33  89 W5        29.57R
WINNER         CLOUDY    39  36  89 W16       29.45R
$$

SDZ004>011-016>023-039-040-221000-
NORTHEAST SOUTH DAKOTA

CITY           SKY/WX    TMP DP  RH WIND       PRES   REMARKS
ABERDEEN       CLOUDY    35  33  92 E3        29.44S FOG
WATERTOWN      CLOUDY    36  35  96 S17       29.45S FOG
SISSETON         N/A     35  35 100 S10       29.47F WCI  27
$$

SDZ017-020-022-023-036>040-048>070-221000-
SOUTHEAST SOUTH DAKOTA

CITY           SKY/WX    TMP DP  RH WIND       PRES   REMARKS
SIOUX FALLS    LGT RAIN  40  39  97 S16       29.51S
HURON          CLOUDY    36  35  96 S9        29.44R
MITCHELL       LGT RAIN  37  36  96 S12       29.46S FOG
YANKTON        CLOUDY    39  39 100 S9        29.50F
$$

ABBREVIATIONS USED IN REMARKS
   TC - TEMPERATURE IN CELSIUS
  WCI - WIND CHILL INDEX
   HX - HEAT INDEX
  VSB - VISIBILITY




USA.gov is the U.S. government's official web portal to all federal, state and local government web resources and services.